Dumas, TX

11:05 PM CDT on March 27, 2017 (GMT -0500)
Moore County

Weather History for KDUX - January, 2014

Change the Weather History Date:

Friday, January 17, 2014

  Actual Average (KDHT) Record (KDHT)
Temperature  
Mean Temperature 34 °F -  
Max Temperature 52 °F 48 °F 76 °F (1974)
Min Temperature 17 °F 21 °F 1 °F (2008)
Degree Days  
Heating Degree Days 30    
Moisture  
Dew Point 15 °F    
Average Humidity 47    
Maximum Humidity 78    
Minimum Humidity 24    
Precipitation  
Precipitation 0.00 in - - ()
Sea Level Pressure  
Sea Level Pressure 30.20 in    
Wind  
Wind Speed 10 mph (WSW)    
Max Wind Speed 29 mph    
Max Gust Speed 36 mph    
Visibility 10 miles    
Events      
Averages and records for this station are not official NWS values.
T = Trace of Precipitation, MM = Missing Value Source: NWS Daily Summary

Daily Weather History Graph

Daily Weather History Graph

Search for Another Location

Airport or City:

Trip Planner

Search our weather history database for the weather conditions in past years. The results will help you decide how hot, cold, wet, or windy it might be!

Date:

Astronomy

Jan. 17, 2014 Rise Set
Actual Time 7:56 AM CST 5:59 PM CST
Civil Twilight 7:29 AM CST 6:27 PM CST
Nautical Twilight 6:57 AM CST 6:58 PM CST
Astronomical Twilight 6:27 AM CST 7:29 PM CST
Moon 7:43 PM CST (1/17) 8:30 AM CST (1/17)
Length of Visible Light 10h 58m
Length of Day
10h 02m
Full, 98% of the Moon is Illuminated
Jan 17
Full
Jan 23
Last Quarter
Jan 30
New
Feb 6
First Quarter
Feb 14
Full

Hourly Weather History & Observations

Time (CST) Temp. Windchill Dew Point Humidity Pressure Visibility Wind Dir Wind Speed Gust Speed Precip Events Conditions
12:15 AM 35.8 °F 31.9 °F 16.5 °F 46% 30.29 in 10.0 mi WNW 4.6 mph - N/A   Scattered Clouds
12:35 AM 34.9 °F 29.9 °F 16.9 °F 48% 30.29 in 10.0 mi WNW 5.8 mph - N/A   Scattered Clouds
12:55 AM 34.9 °F 29.0 °F 17.1 °F 48% 30.29 in 10.0 mi WNW 6.9 mph - N/A   Mostly Cloudy
1:15 AM 35.1 °F 29.3 °F 17.4 °F 49% 30.29 in 10.0 mi WNW 6.9 mph - N/A   Overcast
1:35 AM 34.5 °F 28.6 °F 17.6 °F 50% 30.29 in 10.0 mi WNW 6.9 mph - N/A   Mostly Cloudy
1:55 AM 34.9 °F 28.3 °F 17.2 °F 49% 30.29 in 10.0 mi WNW 8.1 mph - N/A   Mostly Cloudy
2:15 AM 34.2 °F 26.8 °F 16.7 °F 49% 30.29 in 10.0 mi WNW 9.2 mph - N/A   Mostly Cloudy
2:35 AM 32.7 °F 25.0 °F 16.5 °F 51% 30.29 in 10.0 mi WNW 9.2 mph - N/A   Mostly Cloudy
2:55 AM 29.5 °F 22.5 °F 15.8 °F 57% 30.29 in 10.0 mi NW 6.9 mph - N/A   Scattered Clouds
3:15 AM 27.5 °F 21.1 °F 15.6 °F 61% 30.29 in 10.0 mi NW 5.8 mph - N/A   Clear
3:35 AM 27.1 °F 19.7 °F 15.3 °F 61% 30.29 in 10.0 mi WNW 6.9 mph - N/A   Clear
3:55 AM 25.3 °F 16.0 °F 14.0 °F 62% 30.29 in 10.0 mi WNW 9.2 mph - N/A   Clear
4:15 AM 23.4 °F 15.2 °F 13.5 °F 66% 30.29 in 10.0 mi West 6.9 mph - N/A   Clear
4:35 AM 23.0 °F 14.7 °F 13.5 °F 67% 30.28 in 10.0 mi WNW 6.9 mph - N/A   Clear
4:55 AM 22.5 °F 14.1 °F 13.1 °F 67% 30.28 in 10.0 mi West 6.9 mph - N/A   Clear
5:15 AM 22.1 °F 14.7 °F 13.1 °F 68% 30.27 in 10.0 mi WNW 5.8 mph - N/A   Clear
5:35 AM 20.1 °F 10.3 °F 12.6 °F 73% 30.28 in 10.0 mi West 8.1 mph - N/A   Clear
5:55 AM 20.3 °F 11.5 °F 12.9 °F 73% 30.27 in 10.0 mi WNW 6.9 mph - N/A   Clear
6:15 AM 19.6 °F 11.7 °F 12.2 °F 73% 30.27 in 10.0 mi West 5.8 mph - N/A   Clear
6:35 AM 19.0 °F 11.1 °F 12.2 °F 75% 30.28 in 10.0 mi West 5.8 mph - N/A   Clear
6:55 AM 19.0 °F 10.0 °F 12.2 °F 75% 30.29 in 10.0 mi West 6.9 mph - N/A   Clear
7:15 AM 17.4 °F 6.2 °F 11.7 °F 78% 30.28 in 10.0 mi West 9.2 mph - N/A   Clear
7:35 AM 18.7 °F 10.6 °F 12.7 °F 78% 30.29 in 10.0 mi West 5.8 mph - N/A   Clear
7:55 AM 19.0 °F 9.0 °F 12.9 °F 77% 30.29 in 10.0 mi West 8.1 mph - N/A   Clear
8:15 AM 20.3 °F 10.6 °F 13.6 °F 75% 30.29 in 10.0 mi West 8.1 mph - N/A   Clear
8:35 AM 21.7 °F 12.3 °F 14.4 °F 73% 30.29 in 10.0 mi West 8.1 mph - N/A   Clear
8:55 AM 24.8 °F 16.9 °F 15.6 °F 68% 30.30 in 10.0 mi West 6.9 mph - N/A   Clear
9:15 AM 27.5 °F 20.2 °F 16.7 °F 64% 30.30 in 10.0 mi West 6.9 mph - N/A   Clear
9:35 AM 32.0 °F 26.4 °F 18.3 °F 57% 30.30 in 10.0 mi West 5.8 mph - N/A   Clear
9:55 AM 36.0 °F 29.6 °F 17.8 °F 48% 30.30 in 10.0 mi WSW 8.1 mph - N/A   Clear
10:15 AM 37.4 °F 30.3 °F 18.9 °F 47% 30.30 in 10.0 mi SW 10.4 mph - N/A   Clear
10:35 AM 39.6 °F 33.0 °F 18.5 °F 43% 30.30 in 10.0 mi WSW 10.4 mph - N/A   Clear
10:55 AM 41.9 °F 35.0 °F 17.4 °F 37% 30.29 in 10.0 mi WSW 12.7 mph - N/A   Clear
11:15 AM 43.2 °F 35.3 °F 16.9 °F 35% 30.28 in 10.0 mi WSW 17.3 mph 21.9 mph N/A   Clear
11:35 AM 43.9 °F 35.9 °F 16.5 °F 33% 30.27 in 10.0 mi WSW 18.4 mph - N/A   Clear
11:55 AM 44.4 °F 36.1 °F 16.5 °F 33% 30.26 in 10.0 mi SW 20.7 mph 24.2 mph N/A   Clear
12:15 PM 44.4 °F 36.1 °F 16.3 °F 32% 30.24 in 10.0 mi SW 20.7 mph 27.6 mph N/A   Clear
12:35 PM 46.2 °F 37.5 °F 15.8 °F 30% 30.22 in 10.0 mi SW 26.5 mph 32.2 mph N/A   Clear
12:55 PM 47.1 °F - 15.3 °F 28% 30.20 in 10.0 mi WSW 28.8 mph 35.7 mph N/A   Clear
1:15 PM 47.8 °F - 15.8 °F 28% 30.18 in 10.0 mi WSW 25.3 mph 32.2 mph N/A   Clear
1:35 PM 47.7 °F - 16.0 °F 28% 30.17 in 10.0 mi WSW 26.5 mph 34.5 mph N/A   Clear
1:55 PM 49.1 °F - 16.3 °F 27% 30.15 in 10.0 mi WSW 24.2 mph 29.9 mph N/A   Clear
2:15 PM 50.2 °F - 16.0 °F 26% 30.14 in 10.0 mi WSW 25.3 mph - N/A   Clear
2:35 PM 50.9 °F - 15.8 °F 25% 30.14 in 10.0 mi WSW 23.0 mph 29.9 mph N/A   Clear
2:55 PM 51.3 °F - 15.8 °F 25% 30.13 in 10.0 mi WSW 25.3 mph 31.1 mph N/A   Clear
3:15 PM 51.6 °F - 15.6 °F 24% 30.13 in 10.0 mi WSW 21.9 mph 25.3 mph N/A   Clear
3:35 PM 52.0 °F - 15.8 °F 24% 30.12 in 10.0 mi WSW 17.3 mph - N/A   Clear
3:55 PM 52.7 °F - 16.2 °F 24% 30.12 in 10.0 mi WSW 17.3 mph 23.0 mph N/A   Clear
4:15 PM 52.9 °F - 16.3 °F 24% 30.12 in 10.0 mi West 18.4 mph - N/A   Clear
4:35 PM 52.3 °F - 16.5 °F 24% 30.12 in 10.0 mi WSW 17.3 mph - N/A   Clear
4:55 PM 51.8 °F - 16.7 °F 25% 30.12 in 10.0 mi WSW 15.0 mph - N/A   Clear
5:15 PM 50.9 °F - 15.8 °F 25% 30.11 in 10.0 mi WSW 12.7 mph - N/A   Clear
5:35 PM 48.9 °F - 16.2 °F 27% 30.11 in 10.0 mi WSW 9.2 mph - N/A   Clear
5:55 PM 45.1 °F 40.3 °F 15.8 °F 31% 30.10 in 10.0 mi SW 9.2 mph - N/A   Clear
6:15 PM 42.3 °F 36.8 °F 15.6 °F 34% 30.10 in 10.0 mi SW 9.2 mph - N/A   Clear
6:35 PM 39.0 °F 32.3 °F 15.3 °F 38% 30.10 in 10.0 mi SW 10.4 mph - N/A   Clear
6:55 PM 36.9 °F 29.1 °F 14.5 °F 40% 30.09 in 10.0 mi SW 11.5 mph - N/A   Clear
7:15 PM 36.1 °F 28.7 °F 14.7 °F 42% 30.09 in 10.0 mi SW 10.4 mph - N/A   Clear
7:35 PM 35.6 °F 28.0 °F 14.7 °F 42% 30.09 in 10.0 mi WSW 10.4 mph - N/A   Clear
7:55 PM 33.8 °F 25.8 °F 14.5 °F 45% 30.09 in 10.0 mi SW 10.4 mph - N/A   Clear
8:15 PM 34.2 °F 25.7 °F 14.5 °F 45% 30.08 in 10.0 mi WSW 11.5 mph - N/A   Clear
8:35 PM 35.4 °F 27.8 °F 15.1 °F 43% 30.08 in 10.0 mi SW 10.4 mph - N/A   Clear
8:55 PM 34.0 °F 26.6 °F 14.9 °F 46% 30.08 in 10.0 mi WSW 9.2 mph - N/A   Clear
9:15 PM 32.0 °F 23.0 °F 14.7 °F 49% 30.09 in 10.0 mi SW 11.5 mph - N/A   Clear
9:35 PM 32.0 °F 23.0 °F 14.9 °F 49% 30.08 in 10.0 mi WSW 11.5 mph - N/A   Clear
9:55 PM 32.2 °F 23.8 °F 15.1 °F 49% 30.08 in 10.0 mi WSW 10.4 mph - N/A   Clear
10:15 PM 32.5 °F 24.2 °F 15.4 °F 49% 30.08 in 10.0 mi SW 10.4 mph - N/A   Clear
10:35 PM 34.0 °F 26.0 °F 15.6 °F 47% 30.07 in 10.0 mi WSW 10.4 mph - N/A   Clear
10:55 PM 34.0 °F 24.6 °F 15.8 °F 47% 30.07 in 10.0 mi WSW 13.8 mph - N/A   Clear
11:15 PM 35.2 °F 26.6 °F 16.2 °F 46% 30.07 in 10.0 mi WSW 12.7 mph - N/A   Clear
11:35 PM 34.7 °F 25.9 °F 16.3 °F 47% 30.06 in 10.0 mi WSW 12.7 mph - N/A   Clear
11:55 PM 34.3 °F 25.0 °F 16.3 °F 48% 30.06 in 10.0 mi WSW 13.8 mph - N/A   Clear